sat.trackr.live / text

‹ back to catalog

UNISAT-7

NORAD 47945 · 2021-022P

PAYLOAD ACTIVE UNKNOWN

§ Identity

Operator
Country
IT
Launch date
2021-03-22
Launch site
TYMSC
Launch vehicle
Mass (kg)
RCS (m²)

External: N2YO · Heavens-Above · Gunter

§ Orbital elements

Epoch: 2026-09-20T05:59:29.379840Z

Period
93.34 min
Inclination
97.3775°
Eccentricity
0.0010704
Mean motion
15.42763014 rev/d
Perigee alt
430.7 km
Apogee alt
445.3 km
Semi-major
6,816.1 km
B*
2.4485e-4
RAAN
169.2672°
Arg perigee
90.6731°
Mean anomaly
269.5743°
Rev number
30,450

§ Raw data

UNISAT-71 47945U 21022P   26263.24964560  .00010641  00000+0  24485-3 0  99982 47945  97.3775 169.2672 0010704  90.6731 269.5743 15.42763014304501

JSON: /api/v1/satellites/47945 · /tle

For live sub-satellite position, see the globe view (requires WebGL).

§ Visibility from observer

Set your observer location to see the next 7 days of passes ≥ 10°. The values pass through the URL so the page stays shareable.

No JS? Fill the form by hand. The geolocation button needs JavaScript.

§ Radio — SatNOGS DB

ModeDescriptionDownlinkUplink
FSK TLM 437.425 MHz

1 transmitter · refreshed weekly from db.satnogs.org